Location: Gombori
(14.9797°N, 2.9419°W)
Time: 18:49:01
(UTC+00:00)

IUS-12 SRM-1 - Pass Details

Date: 29 July 2021
Orbit: 481 x 35432 km, 25.8° (Epoch: 22 September)

Event Time Altitude Azimuth Distance (km) Brightness Sun altitude
Rises 19:01:54 0° 291° (WNW) 9,600 12.2 -5.2°
Reaches altitude 10° 19:11:50 10° 289° (WNW) 5,480 9.7 -7.5°
Maximum altitude 19:22:06 54° 213° (SSW) 1,006 4.2 -9.8°
Enters shadow 19:25:09 12° 135° (SE) 1,699 4.7 -10.4°
